Location: Eastchurch
(51.4000°N, 0.8667°E)
Time: 00:28:46
(UTC+00:00)

Cosmos 2369 - Pass Details

Date: 19 January 2026
Orbit: 839 x 853 km, 71.0° (Epoch: 9 February)

Event Time Altitude Azimuth Distance (km) Brightness Sun altitude
Rises 18:16:33 0° 331° (NNW) 3,415 7.1 -17.1°
Reaches altitude 10° 18:19:20 10° 342° (NNW) 2,475 6.2 -17.5°
Maximum altitude 18:24:18 30° 43° (NE) 1,465 4.5 -18.3°
Enters shadow 18:25:02 29° 57° (ENE) 1,493 4.5 -18.4°
